Regional Weather Roundup
Issued by NWS

Home | Current Version | Previous Version | Text Only | Print | Product List | Glossary On
Versions: 1 2 3 4 5 6 7 8 9 10 11 12 13 14 15 16 17 18 19 20 21 22 23 24 25 26 27 28 29 30 31 32 33 34 35 36 37 38 39 40 41 42 43 44 45 46 47 48 49 50
000
ASUS43 KMKX 030611
RWRWI

WISCONSIN REGIONAL WEATHER ROUNDUP
NATIONAL WEATHER SERVICE MILWAUKEE/SULLIVAN WI
100 AM CDT FRI JUL 03 2015

NOTE: "FAIR" INDICATES FEW OR NO CLOUDS BELOW 12,000 FEET WITH NO
SIGNIFICANT WEATHER AND/OR OBSTRUCTIONS TO VISIBILITY.

WIZ001-002-006>008-014>016-023>028-030700-
NORTHWEST WISCONSIN

CITY           SKY/WX    TMP DP  RH WIND       PRES   REMARKS
SUPERIOR ARPT  CLEAR     60  56  88 SW6       29.93S
6HR MIN TEMP:  59; 6HR MAX TEMP:  75;

ASHLAND        CLEAR     63  55  75 SW8       29.94S
6HR MIN TEMP:  61; 6HR MAX TEMP:  74;

HAYWARD        CLEAR     55  52  89 CALM      29.97F
6HR MIN TEMP:  54; 6HR MAX TEMP:  73;

SIREN          CLEAR     62  55  75 SW8       29.97S
6HR MIN TEMP:  56; 6HR MAX TEMP:  74;

CUMBERLAND     CLEAR     55  54  94 CALM      29.99S
RICE LAKE      CLEAR     57  55  95 CALM      30.00S FOG
6HR MIN TEMP:  57; 6HR MAX TEMP:  73;

CHETEK         CLEAR     57  57  97 SE3       29.99S
6HR MIN TEMP:  57; 6HR MAX TEMP:  73;

LADYSMITH      CLEAR     58  55  91 CALM      30.00F
6HR MIN TEMP:  58; 6HR MAX TEMP:  73;

EAU CLAIRE     CLEAR     58  56  93 CALM      29.98S
6HR MIN TEMP:  57; 6HR MAX TEMP:  75;

MENOMONIE      CLEAR     60  57  90 CALM      29.99S
6HR MIN TEMP:  60; 6HR MAX TEMP:  74;

NEW RICHMOND   CLEAR     56  55  94 S3        29.99S
6HR MIN TEMP:  56; 6HR MAX TEMP:  72;

OSCEOLA        CLEAR     57  57 100 CALM      30.00F
6HR MIN TEMP:  57; 6HR MAX TEMP:  75;

$$

WIZ003>005-009-010-017-018-030700-
NORTH CENTRAL WISCONSIN

CITY           SKY/WX    TMP DP  RH WIND       PRES   REMARKS
MANITOWISH WTR CLEAR     57  55  92 SW5       29.98F
6HR MIN TEMP:  56; 6HR MAX TEMP:  72;

ARBOR VITAE    CLEAR     59  55  85 SW5       29.99F
6HR MIN TEMP:  57; 6HR MAX TEMP:  72;

WOODRUFF       CLEAR     59  55  85 SW5       29.99F
6HR MIN TEMP:  57; 6HR MAX TEMP:  72;

RHINELANDER    CLEAR     58  51  78 SW5       30.01S
6HR MIN TEMP:  57; 6HR MAX TEMP:  73;

EAGLE RIVER    CLEAR     57  50  77 SW5       29.99S
LAND O LAKES   CLEAR     54  52  92 CALM      29.99F
6HR MIN TEMP:  54; 6HR MAX TEMP:  72;

PHILLIPS       CLEAR     58  54  85 CALM      29.99F
6HR MIN TEMP:  58; 6HR MAX TEMP:  72;

TOMAHAWK       CLEAR     53  50  91 CALM      30.01S
6HR MIN TEMP:  53; 6HR MAX TEMP:  71;

MEDFORD        CLEAR     55  51  84 S5        30.00F
6HR MIN TEMP:  53; 6HR MAX TEMP:  71;

MERRILL        CLEAR     50  50 100 CALM      30.01F
6HR MIN TEMP:  49; 6HR MAX TEMP:  72;

$$

WIZ029-030-035-036-043>047-030700-
CENTRAL WISCONSIN

CITY           SKY/WX    TMP DP  RH WIND       PRES   REMARKS
WAUSAU         CLEAR     58  52  80 CALM      30.00S
6HR MIN TEMP:  57; 6HR MAX TEMP:  73;

MOSINEE        CLEAR     55  52  88 CALM      30.02S
MARSHFIELD     CLEAR     57  50  77 CALM      30.01S
6HR MIN TEMP:  57; 6HR MAX TEMP:  72;

STEVENS POINT  CLEAR     50  48  92 CALM      30.01F
6HR MIN TEMP:  50; 6HR MAX TEMP:  69;

WAUPACA        CLEAR     54  53  96 CALM      30.01S
6HR MIN TEMP:  54; 6HR MAX TEMP:  73;

WAUTOMA        CLEAR     51  51 100 CALM      30.02S
6HR MIN TEMP:  51; 6HR MAX TEMP:  72;

WISC RAPIDS    CLEAR     57  48  72 CALM      30.02S
6HR MIN TEMP:  53; 6HR MAX TEMP:  72;

CAMP DOUGLAS   PTCLDY    48  48 100 E2        30.00F
6HR MIN TEMP:  48; 6HR MAX TEMP:  70;

$$

WIZ011>013-019>022-031-037>040-048>050-030700-
NORTHEAST WISCONSIN

CITY           SKY/WX    TMP DP  RH WIND       PRES   REMARKS
ANTIGO         CLEAR     53  49  85 SW3       30.02S
SHAWANO        CLEAR     58  50  75 CALM      30.00F
6HR MIN TEMP:  58; 6HR MAX TEMP:  73;

OCONTO         CLEAR     50  50 100 SW3       29.99F
STURGEON BAY   CLEAR     55  43  62 S5        30.02S
6HR MIN TEMP:  52; 6HR MAX TEMP:  66;

GREEN BAY      CLEAR     55  50  83 CALM      30.01S
6HR MIN TEMP:  55; 6HR MAX TEMP:  71;

MANITOWOC      CLEAR     52  49  89 MISG      30.01F
6HR MIN TEMP:  51; 6HR MAX TEMP:  67;

APPLETON       CLEAR     59  46  63 CALM      30.01F
CLINTONVILLE   CLEAR     52  50  93 CALM      30.01S
OSHKOSH        CLEAR     54  48  80 S3        30.00F
6HR MIN TEMP:  53; 6HR MAX TEMP:  71;

$$

WIZ032>034-041-042-053>061-030700-
SOUTHWEST WISCONSIN

CITY           SKY/WX    TMP DP  RH WIND       PRES   REMARKS
LA CROSSE      PTCLDY    59  56  89 SE5       30.00R
6HR MIN TEMP:  59; 6HR MAX TEMP:  74;

SPARTA         PTCLDY    49  48  95 CALM      30.02S
6HR MIN TEMP:  49; 6HR MAX TEMP:  73;

VIROQUA        PTCLDY    58  52  79 CALM      30.01F
6HR MIN TEMP:  57; 6HR MAX TEMP:  70;

BOSCOBEL       MOCLDY    54  52  93 CALM      30.00S
6HR MIN TEMP:  54; 6HR MAX TEMP:  71;

PRAIRIE DU CHI MOCLDY    56  53  92 E3        30.00S
6HR MIN TEMP:  55; 6HR MAX TEMP:  69;

PLATTEVILLE    CLOUDY    59  53  80 E8        30.00S
6HR MIN TEMP:  58; 6HR MAX TEMP:  68;

$$

WIZ056-057-062-063-064-067-068-030700-
SOUTH CENTRAL WISCONSIN

CITY           SKY/WX    TMP DP  RH WIND       PRES   REMARKS
REEDSBURG      PTCLDY    55  53  94 CALM      30.01R
6HR MIN TEMP:  52; 6HR MAX TEMP:  70;

BARABOO/DELLS  PTCLDY    53  48  84 CALM      30.02R
6HR MIN TEMP:  53; 6HR MAX TEMP:  69;

LONE ROCK      MOCLDY    53  51  93 NE3       30.01S
6HR MIN TEMP:  53; 6HR MAX TEMP:  71;

MINERAL POINT  MOCLDY    59  50  72 E5        30.00F
MADISON        MOCLDY    53  47  79 CALM      30.01S
6HR MIN TEMP:  53; 6HR MAX TEMP:  69;

MIDDLETON      MOCLDY    53  52  97 CALM      30.02S
6HR MIN TEMP:  52; 6HR MAX TEMP:  70;

WATERTOWN      PTCLDY    53  48  83 CALM      30.01S
6HR MIN TEMP:  53; 6HR MAX TEMP:  67;

MONROE         MOCLDY    55  52  88 NE5       30.00S
JANESVILLE     MOCLDY    55  52  88 CALM      30.01S
$$

WIZ051-052-058>065-066-070>072-030700-
SOUTHEAST WISCONSIN

CITY           SKY/WX    TMP DP  RH WIND       PRES   REMARKS
MILWAUKEE      MOCLDY    56  47  71 CALM      30.02S
6HR MIN TEMP:  56; 6HR MAX TEMP:  60;

WAUKESHA       PTCLDY    52  45  76 CALM      30.02F
MILWAUKEE/TIMM PTCLDY    54  45  71 CALM      30.02F
RACINE         PTCLDY    56  46  69 NE3       30.02F
6HR MIN TEMP:  55; 6HR MAX TEMP:  60;

BURLINGTON     MOCLDY    49  47  95 CALM      30.02R
6HR MIN TEMP:  48; 6HR MAX TEMP:  64;

KENOSHA        MOCLDY    50  46  86 CALM      30.01S
6HR MIN TEMP:  50; 6HR MAX TEMP:  63;

FOND DU LAC    CLEAR     54  48  80 S5        30.01F
6HR MIN TEMP:  54; 6HR MAX TEMP:  70;

SHEBOYGAN      CLEAR     50  47  89 CALM      30.01F
6HR MIN TEMP:  49; 6HR MAX TEMP:  65;

WEST BEND      PTCLDY    50  45  81 CALM      30.01F
JUNEAU         PTCLDY    55  49  80 E5        30.02F
6HR MIN TEMP:  55; 6HR MAX TEMP:  67;

$$

LSZ147-162-030700-
LAKE SUPERIOR

STATION/POSITION TIME  TEMP    WIND        PRES    WAVE
                       AIR SEA DIR/SP/G            HT/PER
                 (UTC) (F)     (DEG/KT/KT) (MB)    (FT/S)
W MID LAKE BUOY  0550   49 38  220/ 12/ 14 1012.1S   1
DEVILS ISLAND    0600   65     220/ 13/ 15 1012.5S
SAXON HARBOR     0540   60     190/  1/  5 1013.2F
$$

LMZ867-665-643>646-030700-
LAKE MICHIGAN

STATION/POSITION TIME  TEMP    WIND        PRES    WAVE
                       AIR SEA DIR/SP/G            HT/PER
                 (UTC) (F)     (DEG/KT/KT) (MB)    (FT/S)
CHAMBERS ISLAND  0500   57      CALM  /  2 1015.6S
S GREEN BAY BUOY 0530   66 69  180/ 10/ 12 1017.0



USA.gov is the U.S. government's official web portal to all federal, state and local government web resources and services.